Location: Zagreb
(45.8000°N, 16.0000°E)
Time: 02:37:30
(UTC+02:00)

Transit 2A Rocket - Pass Details

Date: 26 January 2022
Orbit: 592 x 909 km, 66.7° (Epoch: 26 May)

Event Time Altitude Azimuth Distance (km) Brightness Sun altitude
Rises 02:16:22 0° 330° (NNW) 3,475 - -52.2°
Reaches altitude 10° 02:19:08 10° 338° (NNW) 2,495 - -51.8°
Maximum altitude 02:24:27 37° 45° (NE) 1,245 - -51.1°
Drops below altitude 10° 02:29:21 10° 113° (ESE) 2,295 - -50.3°
Sets 02:31:48 0° 121° (ESE) 3,162 - -50.0°
